Track STARLINK-1558 now! 10-day predictions STARLINK-1558 is classified as:
1 46035U 20055J 24325.76501217 .00009489 00000-0 65430-3 0 9996 2 46035 53.0547 94.1505 0001676 99.3259 260.7919 15.06443665237461